Wind_Speed
15 15 16 16 16 16 17 16 16 16 16 15 16 16 17 17 17 18 18 18 19 19 19 20 20 20 20 20 21 21 22 22 21 21 21 21 22 22 22 22 22 22 22
16 17 17 18 17 17 17 18 18 18 18 18 19 19 19 19 19 20 20 20 20 20 21 21 21 22 22 22 22 22 23 22 22 21 21 21 22 22 22 22 22 22 22
18 18 18 18 19 19 19 19 19 20 20 21 21 21 21 21 21 22 22 22 22 22 22 22 22 22 23 23 23 23 23 23 23 23 23 23 24 24 24 24 24 23 24
19 19 19 20 20 20 20 20 20 21 22 22 22 22 23 23 23 23 23 23 23 23 23 24 24 24 25 24 24 23 23 23 23 24 24 24 25 25 25 25 25 25 25
20 20 21 21 21 21 21 22 22 22 22 23 23 24 23 24 24 24 24 25 24 24 24 25 25 26 26 25 25 24 24 24 24 24 24 24 25 25 25 26 26 26 26
21 21 21 21 22 22 22 22 23 24 24 24 25 25 24 24 24 25 25 25 25 25 25 25 26 26 26 26 26 26 26 25 25 25 25 26 26 26 26 26 26 26 26
21 21 21 21 22 23 23 23 24 24 25 25 25 25 25 25 25 25 26 26 26 27 27 27 27 27 27 27 27 27 26 26 26 26 26 26 27 27 26 26 27 28 28
22 22 22 22 22 23 23 24 24 25 25 26 25 24 25 25 25 25 26 27 28 28 28 27 27 28 28 28 28 27 27 27 27 27 27 26 27 28 27 28 28 29 29
23 23 23 23 23 23 23 24 25 26 27 27 26 26 26 26 26 27 27 27 28 28 28 28 29 29 29 29 29 28 28 28 28 28 28 27 28 28 28 28 28 29 29
24 24 24 24 24 24 24 25 26 28 28 27 27 27 27 27 27 28 29 29 29 30 30 30 30 29 29 29 29 28 28 28 29 29 29 29 29 29 29 29 30 29 29
25 25 26 25 25 26 27 26 27 28 28 28 28 28 28 28 28 29 30 30 30 30 30 30 30 30 30 30 30 29 29 30 30 30 29 29 30 31 31 30 30 30 30
27 27 27 27 28 28 28 29 29 29 29 29 30 30 29 29 30 30 30 30 30 30 30 30 30 30 30 30 29 30 30 30 30 30 30 30 31 31 31 31 31 31 31
28 28 29 30 30 29 30 30 30 29 30 30 31 31 30 30 30 30 30 30 30 30 29 29 30 30 30 29 29 29 29 29 29 30 31 30 30 30 31 31 32 32 32
29 29 30 31 32 31 30 30 30 30 31 31 31 30 30 30 30 29 29 29 29 29 29 29 30 30 30 30 29 29 30 30 30 30 30 31 31 32 32 32 32 33 33
30 30 31 31 31 31 31 31 32 32 32 32 31 31 30 29 29 29 30 29 30 30 29 29 29 30 30 30 30 31 30 30 30 30 30 30 31 31 32 32 31 31 32
31 30 31 31 31 31 32 32 32 32 32 31 31 31 30 30 30 30 30 30 30 29 29 29 29 29 30 31 31 31 32 32 32 32 32 32 32 31 31 32 32 32 32
32 32 32 32 32 32 32 32 32 32 31 31 31 31 31 31 30 30 30 30 29 29 29 29 29 30 30 30 31 32 33 33 33 33 32 32 31 31 32 32 32 32 32
32 32 32 32 32 32 33 33 33 33 32 32 31 31 31 31 30 30 30 30 30 29 30 30 29 29 29 30 30 31 32 32 32 32 31 31 31 31 32 32 32 33 33
31 30 30 30 31 32 32 32 33 32 32 32 31 31 31 30 29 30 30 30 29 29 29 29 29 30 30 30 30 30 31 31 31 30 30 30 30 30 31 31 32 32 33
30 30 31 30 30 31 31 31 32 32 32 31 31 31 31 30 30 30 30 30 30 29 29 29 29 29 30 30 30 30 30 29 29 30 30 29 28 29 30 31 31 32 32
29 29 30 30 29 29 29 30 30 30 30 30 30 30 30 29 29 29 30 30 29 29 29 28 28 28 29 29 30 30 28 28 28 28 28 29 29 29 30 31 31 31 30
28 28 28 28 28 28 28 29 30 29 29 29 28 28 28 28 28 28 28 28 28 28 27 27 27 28 28 28 28 28 27 26 27 27 28 28 29 29 30 31 31 30 30
27 27 27 27 27 27 28 28 29 29 29 28 27 28 28 28 27 26 26 26 26 26 26 26 26 26 26 26 26 25 25 25 26 27 27 27 28 29 29 29 29 29 29
26 26 26 26 26 26 27 27 27 28 27 27 27 27 28 27 26 25 25 25 26 26 26 27 26 26 26 25 25 25 25 26 26 26 26 26 27 27 27 27 27 27 28
25 26 26 26 26 26 26 26 26 26 26 26 26 26 26 26 25 25 26 26 26 26 27 26 25 25 25 25 25 26 26 26 26 26 26 25 25 25 26 26 26 26 26
25 25 25 26 26 26 26 26 26 25 25 25 25 25 26 26 26 26 27 27 27 26 26 25 24 24 24 25 26 26 26 26 26 26 25 25 25 25 25 25 26 26 26
Wind_Direction
288 288 288 289 292 291 290 293 295 295 295 294 293 291 291 290 289 288 288 289 288 285 283 284 284 284 283 282 282 281 280 277 274 270 268 267 266 265 265 265 264 264 265
286 286 286 287 290 294 292 291 292 292 292 291 290 290 289 288 289 287 284 284 286 286 285 285 285 285 283 283 284 281 279 277 274 271 268 265 264 263 263 263 264 265 266
285 286 286 287 289 293 294 293 292 290 288 288 288 287 287 286 286 286 283 283 283 283 283 284 285 286 286 285 286 282 280 280 276 271 267 264 262 262 262 264 266 266 267
285 286 287 286 288 291 291 291 290 290 288 287 288 287 287 286 285 285 283 283 284 284 284 284 283 284 286 284 284 283 281 280 276 272 271 267 264 263 263 263 263 264 265
286 285 286 287 288 289 290 290 291 290 289 288 288 288 287 286 285 283 283 284 284 284 284 284 283 284 285 284 284 282 281 280 278 275 273 271 268 265 265 263 262 263 265
287 287 286 287 288 289 290 290 290 289 289 290 289 287 286 286 285 284 283 283 284 284 283 283 282 283 285 284 284 282 280 278 276 274 272 271 270 268 267 265 263 263 264
285 286 286 286 287 289 289 290 290 290 289 290 291 289 287 286 285 284 283 282 282 283 283 282 281 282 284 284 284 281 280 277 275 275 274 274 272 268 267 268 267 265 265
283 284 285 286 287 288 289 289 290 291 291 290 291 290 288 287 287 286 283 283 283 282 282 282 282 282 283 284 282 280 278 277 276 276 275 274 272 268 266 267 269 269 267
284 284 285 287 289 290 290 290 291 292 293 292 292 291 289 288 288 287 286 286 285 284 284 282 282 281 281 281 281 279 276 276 277 276 274 273 273 271 268 269 270 271 271
286 285 285 287 289 291 292 292 292 293 293 293 293 293 292 290 290 290 290 288 288 286 285 284 283 282 280 280 280 280 277 275 275 275 274 273 272 269 267 268 269 271 272
286 286 286 287 289 291 292 293 293 293 294 294 293 293 292 291 291 292 291 289 288 288 286 284 283 282 281 280 279 279 278 276 273 271 271 271 271 269 268 268 268 268 269
283 284 287 287 289 290 291 293 293 294 294 295 294 294 292 291 291 291 291 291 290 288 287 285 284 283 282 281 280 278 278 278 276 273 271 270 270 270 268 268 268 268 269
284 285 285 287 288 289 289 291 291 293 294 295 295 294 294 293 292 291 290 291 290 289 288 286 285 284 283 282 281 280 279 279 278 276 274 272 270 270 268 268 268 268 268
285 287 287 287 287 288 290 290 291 292 293 294 295 295 294 293 292 292 291 291 291 290 288 287 285 284 282 282 281 280 280 279 279 279 276 273 271 270 270 269 269 268 268
285 287 288 288 288 287 288 288 289 291 292 291 292 294 295 293 292 292 292 291 292 291 289 287 285 283 282 282 281 280 279 278 278 278 277 276 273 273 272 270 269 268 269
283 285 287 287 286 287 288 287 288 290 291 291 292 293 294 295 293 292 292 291 291 292 290 288 287 286 284 283 282 281 280 279 278 277 276 275 273 272 271 270 270 270 270
283 285 287 286 285 286 287 288 290 290 290 291 291 291 292 293 293 293 291 291 291 292 292 290 288 287 286 285 284 282 281 279 278 277 275 275 273 271 269 268 268 270 270
283 284 285 286 285 285 287 288 290 291 291 291 290 290 291 292 292 292 291 291 291 292 292 291 290 288 287 287 286 284 281 278 277 277 276 275 273 271 269 267 267 269 270
283 284 284 285 285 286 287 288 289 290 290 290 290 291 291 291 291 292 292 291 291 292 292 291 289 288 287 287 287 284 281 279 278 278 279 277 274 272 271 270 269 270 270
282 283 283 284 285 286 287 288 289 290 290 290 291 292 291 290 291 292 292 291 291 292 292 292 290 288 288 287 286 284 281 280 279 278 278 277 274 273 273 271 269 269 269
284 284 284 284 286 286 286 288 289 291 291 291 291 291 290 288 290 292 292 291 291 293 293 292 291 290 288 287 286 284 282 280 279 278 277 276 275 273 273 272 270 269 269
285 285 285 285 285 286 287 288 289 289 289 290 290 291 291 289 290 292 292 292 294 295 294 293 291 290 288 287 287 285 284 283 283 281 278 276 275 274 273 273 272 270 269
285 287 288 287 288 289 289 290 290 289 290 289 289 290 292 292 291 291 292 294 296 297 297 295 294 292 288 287 288 287 286 286 286 284 280 277 275 274 274 274 273 271 269
285 286 288 289 289 289 290 290 290 291 290 290 291 292 292 291 291 293 294 295 296 298 297 297 295 292 290 289 288 289 290 290 288 286 283 280 278 277 276 273 272 271 270
285 287 288 289 289 289 290 292 292 292 292 292 291 291 289 289 291 292 294 296 297 297 297 296 294 294 293 291 290 290 290 290 288 286 284 282 279 278 276 275 274 273 272
286 287 288 289 289 288 289 291 293 294 293 293 293 292 291 291 291 292 294 295 295 295 296 296 296 295 295 294 291 290 290 290 289 287 285 283 280 278 276 275 273 271 271
Height
5859 5858 5857 5855 5853 5852 5851 5849 5847 5846 5844 5843 5841 5840 5839 5838 5837 5836 5835 5833 5832 5831 5830 5829 5828 5827 5825 5824 5823 5822 5821 5820 5819 5819 5818 5818 5818 5819 5819 5820 5820 5820 5821
5855 5854 5853 5851 5849 5848 5846 5845 5843 5842 5841 5839 5838 5836 5835 5833 5832 5831 5830 5829 5828 5827 5825 5824 5823 5821 5820 5819 5817 5816 5814 5813 5813 5812 5812 5812 5812 5812 5813 5813 5813 5814 5814
5851 5849 5848 5846 5845 5843 5842 5840 5839 5837 5836 5835 5833 5832 5830 5829 5827 5826 5825 5823 5822 5821 5820 5819 5817 5816 5814 5812 5811 5809 5808 5807 5806 5805 5805 5805 5805 5805 5806 5806 5807 5807 5807
5846 5844 5843 5841 5840 5838 5837 5835 5834 5832 5831 5829 5828 5826 5825 5823 5822 5820 5819 5818 5816 5815 5814 5812 5811 5810 5808 5806 5804 5803 5801 5800 5799 5798 5798 5798 5798 5798 5799 5799 5799 5800 5800
5841 5839 5837 5836 5834 5833 5831 5830 5828 5826 5825 5823 5821 5820 5819 5817 5816 5814 5813 5811 5810 5809 5807 5806 5805 5803 5801 5799 5798 5796 5795 5793 5792 5791 5791 5791 5791 5791 5791 5791 5792 5792 5792
5835 5833 5832 5830 5829 5827 5825 5824 5822 5820 5819 5817 5815 5814 5812 5811 5809 5808 5806 5805 5804 5802 5801 5799 5798 5796 5795 5793 5791 5790 5788 5787 5786 5785 5784 5784 5784 5784 5784 5784 5784 5785 5785
5829 5828 5826 5825 5823 5821 5819 5818 5816 5814 5813 5811 5808 5807 5805 5804 5803 5801 5799 5798 5797 5795 5794 5792 5791 5789 5787 5786 5784 5782 5781 5780 5779 5778 5777 5777 5776 5777 5777 5777 5777 5777 5778
5823 5822 5821 5819 5817 5815 5813 5812 5810 5808 5806 5804 5802 5800 5798 5797 5796 5794 5792 5791 5789 5788 5786 5785 5783 5781 5780 5778 5776 5775 5773 5773 5772 5771 5770 5770 5769 5769 5769 5769 5769 5769 5770
5817 5815 5814 5813 5811 5809 5807 5805 5803 5802 5800 5797 5795 5793 5791 5790 5788 5787 5785 5783 5781 5780 5778 5777 5775 5773 5772 5770 5768 5767 5766 5765 5764 5763 5763 5762 5762 5761 5761 5761 5761 5761 5761
5810 5809 5807 5806 5804 5802 5800 5798 5797 5795 5793 5790 5788 5786 5784 5782 5781 5779 5777 5775 5773 5771 5770 5768 5766 5764 5763 5761 5760 5759 5757 5756 5755 5755 5754 5754 5753 5753 5753 5753 5753 5752 5752
5804 5802 5801 5799 5797 5795 5794 5792 5790 5788 5785 5783 5781 5779 5777 5774 5772 5770 5768 5766 5764 5762 5760 5758 5757 5756 5754 5753 5751 5750 5749 5747 5746 5746 5745 5745 5744 5744 5744 5744 5744 5744 5743
5797 5795 5793 5791 5790 5788 5786 5784 5782 5780 5778 5775 5773 5771 5768 5766 5764 5762 5760 5757 5755 5753 5751 5749 5748 5747 5745 5743 5742 5741 5740 5738 5737 5736 5736 5735 5735 5735 5735 5735 5735 5734 5734
5789 5787 5786 5784 5781 5779 5778 5776 5774 5772 5770 5767 5765 5762 5760 5757 5755 5753 5751 5749 5747 5745 5743 5741 5739 5737 5736 5734 5733 5732 5730 5729 5728 5727 5726 5726 5725 5725 5725 5725 5725 5725 5725
5781 5779 5777 5776 5774 5772 5770 5768 5766 5764 5761 5759 5756 5753 5751 5749 5746 5744 5742 5740 5738 5735 5734 5732 5730 5728 5727 5725 5724 5722 5721 5720 5719 5718 5717 5716 5715 5715 5715 5715 5715 5714 5714
5772 5770 5769 5767 5765 5763 5761 5759 5757 5755 5753 5750 5748 5746 5743 5741 5738 5735 5732 5730 5728 5726 5724 5722 5720 5718 5717 5715 5714 5713 5711 5710 5709 5708 5707 5706 5705 5705 5705 5705 5704 5704 5704
5763 5761 5760 5758 5756 5754 5752 5750 5748 5746 5744 5742 5739 5737 5734 5732 5729 5727 5724 5722 5719 5717 5714 5713 5711 5709 5707 5705 5704 5702 5701 5700 5698 5697 5696 5696 5695 5695 5695 5695 5695 5694 5694
5754 5752 5750 5748 5747 5745 5743 5740 5739 5737 5735 5732 5730 5728 5725 5723 5720 5718 5715 5713 5710 5707 5705 5703 5701 5699 5697 5695 5693 5692 5690 5689 5687 5686 5686 5685 5684 5684 5684 5685 5685 5684 5684
5745 5743 5741 5739 5737 5735 5733 5731 5729 5727 5725 5723 5721 5718 5716 5714 5711 5709 5706 5704 5701 5698 5696 5694 5691 5689 5687 5685 5683 5681 5680 5678 5677 5676 5675 5675 5674 5674 5674 5674 5674 5674 5674
5735 5733 5731 5729 5727 5725 5723 5721 5719 5717 5715 5713 5711 5709 5707 5705 5703 5700 5697 5695 5692 5689 5686 5684 5682 5679 5677 5675 5673 5671 5669 5668 5667 5666 5665 5664 5664 5664 5664 5664 5664 5664 5664
5726 5724 5722 5720 5718 5716 5714 5712 5710 5707 5705 5703 5701 5699 5697 5695 5693 5691 5688 5686 5683 5680 5677 5674 5672 5670 5668 5666 5664 5662 5660 5659 5658 5657 5656 5655 5655 5655 5655 5655 5655 5654 5654
5717 5715 5712 5710 5708 5706 5705 5703 5701 5698 5696 5694 5692 5690 5688 5686 5684 5681 5679 5676 5674 5671 5668 5665 5662 5660 5658 5656 5654 5652 5651 5650 5649 5648 5647 5646 5646 5645 5645 5645 5645 5645 5644
5708 5705 5704 5701 5700 5698 5696 5694 5692 5689 5687 5685 5683 5681 5679 5677 5675 5673 5670 5668 5665 5662 5659 5656 5654 5651 5649 5647 5645 5644 5642 5641 5639 5638 5637 5637 5636 5636 5635 5635 5635 5635 5635
5699 5697 5695 5693 5691 5690 5687 5685 5683 5681 5679 5676 5674 5673 5671 5668 5666 5664 5662 5659 5656 5654 5651 5648 5646 5643 5641 5639 5637 5635 5634 5632 5631 5629 5628 5627 5626 5626 5626 5625 5625 5625 5625
5691 5689 5687 5685 5683 5681 5679 5677 5675 5672 5670 5668 5666 5664 5662 5660 5658 5656 5654 5651 5648 5646 5643 5640 5638 5635 5633 5631 5629 5627 5625 5623 5622 5620 5619 5618 5617 5617 5616 5616 5616 5616 5616
5682 5681 5679 5677 5675 5673 5671 5668 5666 5664 5662 5660 5658 5656 5654 5652 5650 5648 5646 5644 5641 5638 5635 5633 5630 5627 5624 5622 5620 5618 5617 5615 5613 5611 5610 5609 5608 5607 5607 5607 5606 5606 5607
5674 5672 5670 5669 5667 5665 5663 5660 5658 5656 5654 5652 5650 5648 5646 5644 5642 5640 5638 5635 5633 5630 5627 5624 5622 5619 5616 5614 5612 5610 5608 5606 5604 5602 5600 5600 5599 5598 5598 5597 5597 5597 5598